Prestonsburg, KY

5:04 AM EDT on June 23, 2017 (GMT -0400)
Prestonsburg

Weather History for KK22 - October, 2012

Change the Weather History Date:

Saturday, October 20, 2012

  Actual Average (KJKL) Record (KJKL)
Temperature  
Mean Temperature 52 °F -  
Max Temperature 57 °F 64 °F 84 °F (2016)
Min Temperature 47 °F 46 °F 31 °F (1992)
Degree Days  
Heating Degree Days 14    
Growing Degree Days 2 (Base 50)    
Moisture  
Dew Point 40 °F    
Average Humidity 64    
Maximum Humidity 77    
Minimum Humidity 52    
Precipitation  
Precipitation 0.00 in - - ()
Sea Level Pressure  
Sea Level Pressure 29.93 in    
Wind  
Wind Speed 4 mph ()    
Max Wind Speed 12 mph    
Max Gust Speed 18 mph    
Visibility 10.0 miles    
Events      
Averages and records for this station are not official NWS values.
T = Trace of Precipitation, MM = Missing Value Source: Averaged Metar Reports

Daily Weather History Graph

Daily Weather History Graph

Search for Another Location

Airport or City:

Trip Planner

Search our weather history database for the weather conditions in past years. The results will help you decide how hot, cold, wet, or windy it might be!

Date:

Astronomy

Oct. 20, 2012 Rise Set
Actual Time 7:44 AM EDT 6:45 PM EDT
Civil Twilight 7:17 AM EDT 7:12 PM EDT
Nautical Twilight 6:46 AM EDT 7:42 PM EDT
Astronomical Twilight 6:16 AM EDT 8:13 PM EDT
Moon 1:15 PM EDT (10/20) 11:33 PM EDT (10/20)
Length of Visible Light 11h 54m
Length of Day
11h 01m
Waxing Crescent, 34% of the Moon is Illuminated
Oct 20
Waxing Crescent
Oct 21
First Quarter
Oct 29
Full
Nov 6
Last Quarter
Nov 13
New

Hourly Weather History & Observations

Time (EDT) Temp. Dew Point Humidity Pressure Visibility Wind Dir Wind Speed Gust Speed Precip Events Conditions
12:15 AM 52.0 °F 38.3 °F 60% 29.82 in 10.0 mi WSW 6.9 mph - N/A   Overcast
12:35 AM 52.0 °F 38.5 °F 60% 29.83 in 10.0 mi West 6.9 mph - N/A   Overcast
12:55 AM 52.0 °F 38.7 °F 60% 29.83 in 10.0 mi WSW 6.9 mph - N/A   Overcast
1:15 AM 52.2 °F 38.3 °F 59% 29.83 in 10.0 mi WSW 6.9 mph - N/A   Overcast
1:35 AM 52.0 °F 38.5 °F 60% 29.83 in 10.0 mi WSW 4.6 mph - N/A   Overcast
1:55 AM 51.8 °F 38.7 °F 61% 29.84 in 10.0 mi WSW 4.6 mph - N/A   Overcast
2:15 AM 51.4 °F 38.8 °F 62% 29.84 in 10.0 mi West 3.5 mph - N/A   Overcast
2:55 AM 50.9 °F 39.2 °F 64% 29.85 in 10.0 mi WSW 3.5 mph - N/A   Overcast
3:15 AM 50.9 °F 39.4 °F 65% 29.85 in 10.0 mi West 4.6 mph - N/A   Overcast
3:35 AM 50.9 °F 39.4 °F 65% 29.85 in 10.0 mi WSW 4.6 mph - N/A   Overcast
3:55 AM 50.5 °F 39.4 °F 66% 29.86 in 10.0 mi Calm Calm - N/A   Overcast
4:15 AM 50.2 °F 39.6 °F 67% 29.86 in 10.0 mi West 4.6 mph - N/A   Overcast
4:35 AM 50.0 °F 39.6 °F 67% 29.85 in 10.0 mi Calm Calm - N/A   Overcast
4:55 AM 50.0 °F 39.6 °F 67% 29.85 in 10.0 mi SW 3.5 mph - N/A   Overcast
5:15 AM 50.0 °F 39.6 °F 67% 29.86 in 10.0 mi WSW 4.6 mph - N/A   Overcast
5:35 AM 49.5 °F 40.1 °F 70% 29.86 in 10.0 mi Calm Calm - N/A   Overcast
5:55 AM 49.5 °F 40.1 °F 70% 29.86 in 10.0 mi SW 3.5 mph - N/A   Overcast
6:15 AM 49.5 °F 40.1 °F 70% 29.87 in 10.0 mi SW 4.6 mph - N/A   Overcast
6:35 AM 49.5 °F 40.1 °F 70% 29.87 in 10.0 mi WSW 4.6 mph - N/A   Overcast
6:55 AM 49.1 °F 40.5 °F 72% 29.88 in 10.0 mi WSW 3.5 mph - N/A   Overcast
7:15 AM 48.9 °F 40.5 °F 73% 29.88 in 10.0 mi Calm Calm - N/A   Overcast
7:35 AM 49.1 °F 40.3 °F 72% 29.89 in 10.0 mi SW 3.5 mph - N/A   Overcast
7:55 AM 49.1 °F 40.5 °F 72% 29.89 in 10.0 mi SW 3.5 mph - N/A   Overcast
8:15 AM 49.1 °F 40.8 °F 73% 29.90 in 10.0 mi SW 4.6 mph - N/A   Overcast
8:35 AM 49.5 °F 41.0 °F 73% 29.91 in 10.0 mi WSW 5.8 mph - N/A   Overcast
8:55 AM 49.6 °F 41.0 °F 72% 29.91 in 10.0 mi WSW 5.8 mph - N/A   Overcast
9:15 AM 50.0 °F 41.2 °F 72% 29.92 in 10.0 mi WSW 3.5 mph - N/A   Overcast
9:35 AM 50.4 °F 41.2 °F 71% 29.92 in 10.0 mi WSW 6.9 mph - N/A   Overcast
9:55 AM 50.9 °F 41.5 °F 70% 29.93 in 10.0 mi West 4.6 mph - N/A   Overcast
10:15 AM 51.1 °F 41.4 °F 69% 29.93 in 10.0 mi West 8.1 mph - N/A   Overcast
10:35 AM 51.8 °F 41.5 °F 68% 29.93 in 10.0 mi West 6.9 mph - N/A   Overcast
10:55 AM 52.7 °F 41.9 °F 67% 29.93 in 10.0 mi West 4.6 mph - N/A   Overcast
11:15 AM 52.7 °F 40.6 °F 64% 29.94 in 10.0 mi West 5.8 mph - N/A   Overcast
11:35 AM 52.7 °F 40.1 °F 62% 29.94 in 10.0 mi West 4.6 mph - N/A   Overcast
12:15 PM 52.7 °F 38.8 °F 59% 29.94 in 10.0 mi West 6.9 mph - N/A   Overcast
12:35 PM 53.8 °F 37.0 °F 53% 29.94 in 10.0 mi West 9.2 mph 18.4 mph N/A   Overcast
12:55 PM 54.0 °F 36.9 °F 52% 29.94 in 10.0 mi WSW 6.9 mph - N/A   Overcast
1:15 PM 54.1 °F 36.7 °F 52% 29.94 in 10.0 mi West 10.4 mph 17.3 mph N/A   Overcast
1:35 PM 54.5 °F 37.4 °F 52% 29.95 in 10.0 mi WNW 3.5 mph - N/A   Overcast
1:55 PM 53.8 °F 37.6 °F 54% 29.95 in 10.0 mi West 6.9 mph - N/A   Overcast
2:15 PM 54.5 °F 38.3 °F 54% 29.95 in 10.0 mi WSW 5.8 mph - N/A   Overcast
2:35 PM 55.2 °F 38.5 °F 53% 29.94 in 10.0 mi West 11.5 mph - N/A   Overcast
2:55 PM 56.7 °F 39.0 °F 52% 29.94 in 10.0 mi West 8.1 mph 16.1 mph N/A   Mostly Cloudy
3:15 PM 55.8 °F 38.5 °F 52% 29.94 in 10.0 mi West 4.6 mph - N/A   Overcast
3:35 PM 55.9 °F 38.5 °F 52% 29.94 in 10.0 mi WNW 8.1 mph - N/A   Overcast
3:55 PM 55.6 °F 39.0 °F 54% 29.94 in 10.0 mi West 6.9 mph - N/A   Overcast
4:15 PM 55.4 °F 39.0 °F 54% 29.95 in 10.0 mi West 4.6 mph - N/A   Overcast
4:35 PM 55.4 °F 39.6 °F 55% 29.95 in 10.0 mi West 3.5 mph - N/A   Overcast
4:55 PM 55.6 °F 39.6 °F 55% 29.95 in 10.0 mi WNW 4.6 mph - N/A   Overcast
5:15 PM 55.4 °F 38.7 °F 53% 29.96 in 10.0 mi WNW 5.8 mph - N/A   Overcast
5:35 PM 55.4 °F 39.0 °F 54% 29.97 in 10.0 mi WNW 4.6 mph - N/A   Overcast
5:55 PM 54.9 °F 39.6 °F 56% 29.97 in 10.0 mi WNW 4.6 mph - N/A   Overcast
6:15 PM 54.7 °F 39.2 °F 56% 29.98 in 10.0 mi West 6.9 mph - N/A   Overcast
6:35 PM 54.0 °F 39.4 °F 58% 29.98 in 10.0 mi West 4.6 mph - N/A   Overcast
6:55 PM 53.6 °F 39.7 °F 59% 29.99 in 10.0 mi WNW 4.6 mph - N/A   Overcast
7:15 PM 53.2 °F 39.7 °F 60% 29.99 in 10.0 mi Calm Calm - N/A   Overcast
7:35 PM 52.7 °F 40.1 °F 62% 30.00 in 10.0 mi Calm Calm - N/A   Overcast
7:55 PM 52.3 °F 40.5 °F 64% 30.01 in 10.0 mi WNW 3.5 mph - N/A   Overcast
8:15 PM 52.0 °F 40.6 °F 65% 30.01 in 10.0 mi WNW 4.6 mph - N/A   Mostly Cloudy
8:35 PM 50.9 °F 40.6 °F 68% 30.01 in 10.0 mi West 4.6 mph - N/A   Scattered Clouds
8:55 PM 50.5 °F 40.8 °F 69% 30.01 in 10.0 mi West 3.5 mph - N/A   Mostly Cloudy
9:15 PM 50.2 °F 41.0 °F 71% 30.02 in 10.0 mi West 3.5 mph - N/A   Overcast
9:35 PM 50.2 °F 41.0 °F 71% 30.03 in 10.0 mi WNW 4.6 mph - N/A   Overcast
9:55 PM 50.4 °F 41.2 °F 71% 30.04 in 10.0 mi West 3.5 mph - N/A   Overcast
10:15 PM 49.5 °F 41.4 °F 74% 30.05 in 10.0 mi Calm Calm - N/A   Overcast
10:35 PM 49.1 °F 41.4 °F 75% 30.05 in 10.0 mi Calm Calm - N/A   Mostly Cloudy
10:55 PM 48.7 °F 41.4 °F 76% 30.06 in 10.0 mi West 3.5 mph - N/A   Overcast
11:15 PM 48.2 °F 41.0 °F 76% 30.06 in 10.0 mi Calm Calm - N/A   Mostly Cloudy
11:35 PM 47.8 °F 40.6 °F 76% 30.06 in 10.0 mi Calm Calm - N/A   Clear
11:55 PM 47.8 °F 41.0 °F 77% 30.07 in 10.0 mi Calm Calm - N/A   Scattered Clouds